Location: Kellogg
(38.0159°N, 90.0546°W)
Time: 00:39:18
(UTC+00:00)

Vanguard 2 - Pass Details

Date: 21 September 2024
Orbit: 552 x 2910 km, 32.9° (Epoch: 15 October)

Event Time Altitude Azimuth Distance (km) Brightness Sun altitude
Rises 14:19:25 0° 260° (W) 4,035 10.8 28.3°
Reaches altitude 10° 14:23:29 10° 238° (WSW) 3,494 10.7 29.0°
Maximum altitude 14:28:07 15° 207° (SSW) 3,572 11.0 29.8°
Drops below altitude 10° 14:33:52 10° 178° (S) 4,485 11.9 30.8°
Sets 14:40:36 0° 159° (SSE) 6,009 12.7 32.0°
